Regional Weather Roundup
Issued by NWS Albany, NY

Home | Current Version | Previous Version | Text Only | Print | Product List | Glossary On
Versions: 1 2 3 4 5 6 7 8 9 10 11 12 13 14 15 16 17 18 19 20 21 22 23 24 25 26 27
000
ASUS41 KALY 230910
RWRALY

NEW YORK STATE HOURLY WEATHER ROUNDUP
NATIONAL WEATHER SERVICE ALBANY NY
500 AM EDT SAT JUL 23 2016

NOTE: "FAIR" INDICATES FEW OR NO CLOUDS BELOW 12,000 FEET WITH NO
SIGNIFICANT WEATHER AND/OR NO OBSTRUCTIONS TO VISIBILITY.

NYZ032-033-038>043-046>054-057>066-NYZ062>081-082-084-231000-
EAST


CITY           SKY/WX    TMP DP  RH WIND       PRES   REMARKS
ALBANY         PTCLDY    74  62  66 W13       29.80R
GLENS FALLS    CLEAR     65  62  90 CALM      29.78R
POUGHKEEPSIE   CLEAR     70  67  90 CALM      29.81S
NEWBURGH       CLEAR     72  66  83 W9        29.86S
MONTGOMERY     CLEAR     72  64  76 W6        29.85R
WHITE PLAINS   CLEAR     80  63  55 W9        29.84R
ISLIP          CLEAR     75  70  84 W6        29.81R
NEW YORK CITY  PTCLDY    84  65  52 NW13      29.82R
CENTRAL PARK   CLEAR     82  63  52 NW3       29.86S
$$

NYZ005>009-017-018-044>046-055-056-231000-
CENTRAL


CITY           SKY/WX    TMP DP  RH WIND       PRES   REMARKS
FULTON         CLEAR     74  61  63 W7        29.85R
SYRACUSE       PTCLDY    70  59  68 W7        29.85R
ROME           CLEAR     63  62  97 CALM      29.85R
ELMIRA         CLEAR     67  62  84 SW6       29.91R
BINGHAMTON     CLEAR     68  61  78 W7        29.93R
MONTICELLO     CLEAR     68  63  83 W6        29.92S
$$

NYZ026>034-041>043-087-231000-
NORTH


CITY           SKY/WX    TMP DP  RH WIND       PRES   REMARKS
WATERTOWN      CLEAR     69  63  81 SW7       29.82R
FORT DRUM      NOT AVBL
MASSENA        CLOUDY    67  62  84 W6        29.79R
SARANAC LAKE   CLEAR     58  56  93 CALM      29.83S FOG
PLATTSBURGH    CLOUDY    66  65  96 CALM      29.75S
$$

NYZ001>004-010>016-019>021-085-231000-
WEST


CITY           SKY/WX    TMP DP  RH WIND       PRES   REMARKS
NIAGARA FALLS  CLEAR     76  57  51 NW12      29.91R
BUFFALO        CLEAR     71  69  93 SW6       29.92R
DUNKIRK        CLEAR     71  69  93 SW6       29.94R
JAMESTOWN      CLEAR     70  66  88 CALM      29.99S
WELLSVILLE     CLEAR     68  65  90 W9        30.01R
ROCHESTER      CLEAR     69  66  90 W7        29.90R
PENN YAN       CLEAR     70  61  73 S8        29.92R
$$

             KEY
       WCI = WIND CHILL INDEX
       VSB = VISIBILITY
       HX  = HEAT INDEX
$$




USA.gov is the U.S. government's official web portal to all federal, state and local government web resources and services.